Temperature
28 25 24 25 26 26 27 28 28 29 29 29 28 27 26 26 25 25 24 24 23 23 23 23 23 22 22 21 21 21 20 20 20 19 19 19 19 19 18 18 18 18 18 18
25 24 26 27 28 29 29 28 28 28 29 29 27 27 26 26 26 25 24 24 23 23 23 23 22 22 22 22 21 21 20 20 20 20 19 19 19 19 19 18 18 18 18 18
25 26 28 29 29 29 29 28 28 28 28 27 27 25 25 26 26 26 25 25 24 24 23 23 23 22 22 22 21 21 21 20 20 20 19 19 18 18 18 18 18 18 18 18
26 27 29 29 29 30 28 29 29 29 26 25 26 24 25 24 25 25 25 24 24 24 24 23 23 23 22 22 22 21 21 20 20 19 19 19 19 19 19 18 18 18 18 18
26 28 29 29 30 30 29 30 29 29 26 25 25 24 23 24 24 24 24 24 24 24 24 24 24 23 23 22 22 21 21 20 20 19 19 19 19 19 18 18 18 18 18 18
26 28 29 29 30 30 30 27 25 22 22 24 25 25 24 23 25 25 24 25 25 25 24 24 24 23 23 22 22 21 21 20 20 19 19 19 19 18 18 18 18 18 18 18
26 27 28 30 29 29 27 23 22 23 22 23 24 24 23 24 26 25 25 25 25 25 24 24 23 23 23 22 22 21 21 20 20 19 19 19 19 18 18 18 18 18 18 18
25 24 27 29 28 27 27 23 22 23 23 23 24 24 24 26 27 27 27 26 25 25 25 24 24 23 23 22 22 21 21 21 20 20 19 19 19 18 18 18 18 18 18 18
23 24 27 29 29 28 27 24 22 21 23 23 23 25 26 27 26 26 26 25 25 25 25 25 24 24 23 23 22 22 21 21 20 20 19 19 18 18 18 18 18 18 18 18
24 25 26 28 29 28 27 25 21 22 23 23 23 24 24 26 25 25 24 24 24 25 24 24 24 24 23 23 22 22 21 21 20 20 19 19 19 18 18 18 18 18 18 18
24 24 24 26 27 27 27 27 22 20 20 21 23 23 24 24 24 24 24 25 25 25 25 25 24 24 23 23 22 22 21 21 20 20 19 19 19 18 18 18 18 18 18 18
23 22 22 24 26 27 26 25 22 23 22 20 21 22 25 24 24 25 25 25 25 26 25 25 25 24 23 23 22 22 21 21 20 20 19 19 19 18 18 18 18 18 18 18
24 22 22 23 24 26 27 26 23 21 20 20 21 23 25 24 25 25 25 25 25 25 25 25 24 24 23 23 22 22 21 21 20 20 19 19 19 18 18 18 18 18 18 18
24 20 22 23 23 25 27 27 25 22 21 21 22 23 24 24 24 24 25 26 25 25 25 24 24 24 23 23 22 22 21 21 20 20 19 19 19 18 18 18 18 18 18 18
22 22 23 23 25 27 27 27 27 25 22 22 23 23 23 23 24 25 25 25 25 24 24 24 24 24 23 23 22 22 21 21 20 20 19 19 19 18 18 18 18 18 18 18
19 22 23 24 26 26 26 27 27 27 26 24 24 24 23 25 25 25 25 25 24 25 25 25 24 24 23 23 22 22 21 21 20 20 20 19 19 18 18 18 18 18 18 17
18 20 21 22 24 25 24 25 26 26 26 25 24 24 24 23 23 24 24 25 25 25 25 24 24 24 24 23 23 22 22 21 20 20 19 19 19 18 18 18 18 18 17 17
19 18 17 20 23 23 22 24 25 25 25 24 24 23 23 23 24 25 25 25 25 25 25 25 24 24 23 23 23 22 21 21 20 20 19 19 18 18 18 18 18 17 17 17
18 18 18 18 20 21 23 25 26 25 23 23 23 23 24 24 23 23 24 25 26 25 25 25 24 24 23 23 22 22 21 20 20 20 19 19 19 18 18 18 17 17 17 17
18 17 17 18 20 21 22 24 26 24 22 22 22 22 23 23 20 20 23 24 25 25 24 24 24 23 23 22 22 21 21 20 20 20 19 19 18 18 18 18 17 17 17 17
18 18 18 18 19 19 21 24 24 22 21 22 22 22 22 21 21 22 22 24 24 24 24 24 23 23 22 22 21 21 20 20 20 19 19 18 18 18 18 17 17 17 16 16
17 17 17 16 18 19 21 23 21 20 22 22 22 23 22 22 21 21 22 23 23 23 22 22 22 22 21 21 20 20 20 20 19 19 18 18 18 17 17 17 17 16 16 15
16 16 16 16 17 19 21 21 22 22 22 22 22 22 22 21 21 21 21 21 21 21 21 21 21 20 20 19 19 19 19 19 18 18 18 18 17 17 17 16 16 16 15 15
16 16 15 16 17 18 20 21 21 22 22 22 22 21 21 21 20 20 20 20 20 20 20 20 19 19 19 19 18 18 18 18 18 17 17 17 17 16 16 16 15 15 15 15
16 15 15 15 16 18 19 19 20 20 21 21 21 21 21 20 20 20 19 19 19 19 19 19 19 18 18 18 18 17 17 17 17 16 16 16 16 16 15 15 15 14 14 14
14 14 14 14 16 15 17 18 19 20 20 20 20 20 19 19 19 19 19 18 18 18 18 18 18 18 17 17 17 16 16 16 16 15 15 15 15 15 15 14 14 14 14 13
Wind_Speed
2 2 5 9 8 9 6 4 3 3 2 4 5 6 11 12 13 13 13 13 13 13 11 11 12 12 12 11 11 11 10 9 8 5 4 3 3 2 2 4 8 9 10 10
5 6 12 10 8 5 3 2 3 3 1 2 2 2 7 12 15 16 16 15 14 12 10 11 11 11 12 12 11 10 10 10 9 6 5 4 3 2 3 3 5 9 9 9
8 9 7 6 6 3 3 1 2 2 4 6 5 4 1 5 6 10 13 14 14 15 15 13 12 11 11 11 12 11 11 10 9 7 4 3 2 1 1 2 3 6 9 9
8 10 8 6 5 2 4 4 1 3 4 2 3 0 5 4 6 10 12 12 13 13 13 12 12 12 12 11 11 10 11 10 8 8 7 7 5 5 5 4 4 4 7 9
7 5 4 5 6 3 5 2 3 3 4 3 3 4 6 2 6 10 12 13 13 13 14 14 13 13 11 11 11 10 10 9 9 8 8 7 5 4 3 3 4 4 5 7
9 7 5 7 6 4 1 7 9 8 6 2 4 4 5 6 9 10 11 13 13 13 13 12 11 10 9 9 10 10 10 9 9 9 8 8 7 6 4 4 4 4 4 4
7 9 6 3 1 3 6 7 5 6 5 5 4 2 7 9 9 13 15 14 13 12 11 11 12 11 11 11 11 10 10 9 9 9 8 8 8 7 6 5 5 5 4 4
5 8 6 4 7 6 5 10 8 4 4 5 5 2 7 6 8 11 12 13 13 11 11 12 12 12 11 12 11 11 10 9 8 8 8 7 6 5 5 5 5 5 5 5
8 8 7 6 7 10 6 6 10 7 2 2 5 4 5 2 6 9 11 12 12 12 11 12 11 11 11 11 11 11 11 9 8 8 7 6 6 6 6 5 5 4 5 5
9 6 8 6 3 5 9 9 7 5 3 2 5 3 5 6 7 8 11 13 12 10 10 10 10 11 10 10 9 10 10 9 8 8 7 6 6 6 5 4 5 5 5 5
11 7 8 4 5 9 5 6 7 6 6 6 2 7 7 11 10 11 12 14 15 14 13 11 9 10 10 9 9 9 9 8 7 7 6 6 5 5 5 4 5 5 4 4
10 8 7 9 8 8 9 10 10 6 5 6 5 7 7 8 9 12 13 13 14 13 11 10 10 9 9 10 9 9 9 9 8 7 6 6 5 4 4 4 4 4 4 4
10 8 4 7 7 2 3 6 8 8 6 6 5 7 4 3 5 8 10 11 11 11 10 8 8 9 10 10 10 10 9 9 8 7 7 6 5 5 5 4 4 4 4 3
9 7 9 12 9 5 2 3 5 8 5 6 8 8 5 4 7 8 9 11 11 12 11 10 9 9 9 10 10 9 9 9 9 8 7 7 6 6 5 4 4 4 3 3
6 6 6 7 7 4 2 4 3 5 9 10 10 11 11 11 12 12 12 12 12 11 11 12 11 9 8 8 8 9 9 9 9 9 8 7 6 5 5 4 4 3 3 3
5 4 3 1 1 2 1 4 5 5 5 7 7 8 10 8 8 10 13 14 13 12 12 13 12 11 10 10 9 9 8 9 8 9 8 7 6 5 5 4 4 3 2 2
3 4 4 1 2 4 3 5 4 5 5 6 9 10 6 7 10 14 15 15 14 13 11 11 12 11 11 10 9 10 9 8 8 8 7 7 6 6 6 5 4 3 3 2
4 4 4 3 3 5 9 5 3 3 5 4 5 6 9 10 8 7 10 14 13 12 11 9 9 8 7 7 7 8 8 8 8 7 7 6 6 6 5 5 4 3 2 3
5 6 4 4 4 5 7 5 2 1 4 6 1 4 7 9 10 5 2 8 11 11 10 9 8 7 7 8 8 9 8 7 7 7 6 6 7 6 6 5 4 3 3 2
6 6 5 4 4 6 7 6 3 3 3 7 1 6 8 8 6 4 2 5 7 8 8 7 8 7 7 7 8 9 8 7 7 7 6 6 6 7 6 6 5 3 3 3
4 4 4 4 3 6 7 7 4 2 5 5 1 4 7 5 6 6 6 6 7 8 8 8 9 8 6 7 8 8 7 7 6 6 5 5 5 6 6 5 4 3 3 3
4 3 4 5 4 7 7 4 1 5 3 1 3 5 8 9 9 8 8 8 8 8 8 8 9 7 5 6 7 7 5 4 4 5 5 5 4 4 5 5 4 3 4 4
4 7 6 7 7 5 3 1 1 4 4 3 5 6 10 11 8 8 7 7 7 7 7 7 8 7 5 4 6 6 3 4 5 6 5 4 4 3 4 4 4 3 3 3
5 2 2 1 1 2 3 4 5 4 4 5 6 7 9 10 8 8 7 6 6 6 7 6 7 7 5 4 4 4 3 4 6 5 4 4 4 4 3 3 3 3 2 3
4 4 3 1 2 5 7 5 4 5 6 7 7 6 7 9 8 7 6 6 6 6 5 6 6 6 4 4 5 4 4 4 5 4 4 3 4 5 4 4 3 2 1 1
3 1 1 1 4 1 2 4 5 6 6 6 8 7 7 7 7 7 7 5 6 6 6 6 6 6 5 5 5 5 4 4 5 4 3 2 3 4 4 4 3 7 4 4
Wind_Direction
313 71 247 242 230 222 248 283 302 268 212 125 153 158 171 173 172 173 175 175 178 183 179 167 165 166 163 163 164 164 163 170 163 159 162 162 177 184 186 191 191 188 185 183
5 272 246 248 260 257 269 332 331 320 318 98 138 149 179 176 182 180 178 179 177 172 167 168 167 169 171 172 170 168 169 175 175 173 167 163 167 187 195 203 196 196 192 192
223 246 263 256 274 294 316 290 276 284 6 39 75 10 222 200 187 181 179 177 173 174 174 174 174 178 176 176 176 178 176 177 177 167 150 143 132 124 190 212 215 210 197 198
249 254 266 262 262 213 292 285 43 63 64 313 97 165 272 217 182 179 178 177 178 178 176 176 180 181 183 182 177 172 174 175 175 170 170 172 183 199 208 200 213 223 209 204
260 269 264 243 238 209 230 290 20 34 82 18 16 129 272 214 187 191 183 180 181 180 178 179 186 185 183 177 174 173 174 178 179 180 183 183 193 203 198 193 212 228 226 213
257 274 245 227 237 216 148 38 24 38 61 350 262 154 253 225 201 187 183 183 182 179 178 180 182 175 174 172 172 174 175 184 184 183 184 186 191 194 191 200 211 224 227 223
300 299 281 242 235 345 80 77 25 359 8 261 283 165 242 236 200 181 178 180 179 174 170 169 170 173 174 173 175 176 176 183 184 184 189 192 192 191 198 203 209 212 218 221
227 279 266 223 178 181 159 134 154 192 225 283 334 238 259 240 194 167 163 163 162 167 172 172 174 173 175 177 175 175 178 182 180 183 190 191 189 191 202 205 204 209 217 219
197 247 274 248 197 157 156 172 170 145 200 314 300 299 321 63 130 142 149 151 162 169 174 174 172 170 172 176 177 176 177 178 182 185 184 188 192 195 205 211 210 217 222 222
176 240 281 280 199 186 165 155 99 114 148 267 302 277 222 199 166 153 156 163 165 165 170 171 170 172 175 177 175 171 174 178 179 181 184 190 195 201 205 204 211 218 225 224
179 204 282 335 196 201 181 150 123 130 150 151 243 274 231 197 178 166 171 171 167 169 175 174 173 172 169 168 167 169 171 171 174 182 186 186 193 200 201 204 214 219 222 211
183 171 239 255 252 202 180 179 151 157 208 164 169 265 274 196 177 166 170 172 172 173 170 167 166 163 162 165 169 172 173 174 179 181 182 188 188 186 193 209 215 210 212 210
167 152 204 307 322 339 191 185 164 144 136 157 169 258 301 151 165 162 162 168 169 168 163 160 157 163 167 170 173 175 176 178 178 175 178 185 185 186 197 206 205 200 200 202
145 138 176 203 208 202 226 237 170 137 165 205 208 227 257 196 171 170 166 167 167 169 165 164 166 169 172 174 175 175 178 177 175 174 178 185 190 193 196 198 194 196 196 197
115 146 170 190 191 170 201 262 243 196 191 189 213 208 222 206 186 177 170 166 162 164 166 170 172 171 170 173 175 175 175 175 173 173 180 187 190 189 186 187 191 195 200 210
56 120 119 113 106 83 337 299 297 266 223 205 201 229 228 204 172 166 167 163 164 168 174 178 176 173 175 177 177 176 178 176 170 174 182 182 179 178 180 182 179 176 184 183
33 99 102 195 13 47 288 250 256 273 260 200 211 228 204 168 170 173 171 167 167 167 168 176 178 180 182 178 173 175 174 165 163 170 177 178 175 177 182 175 162 167 181 163
108 91 118 127 90 222 241 248 235 256 288 266 218 208 177 172 170 165 165 161 161 162 167 176 177 175 169 162 159 159 154 154 162 169 173 177 173 174 173 164 167 178 170 157
129 125 109 119 167 269 296 304 324 251 306 317 222 155 151 131 96 65 146 154 159 163 163 168 170 164 156 153 150 143 145 151 154 164 172 176 171 168 165 164 169 169 161 160
77 94 108 120 154 217 251 284 310 94 327 321 107 145 145 124 126 195 191 141 138 139 143 144 140 129 134 143 142 143 153 158 169 178 178 174 170 169 170 170 170 167 165 167
52 57 118 150 197 253 262 298 22 107 231 296 99 144 139 136 159 154 129 118 118 116 115 118 120 125 135 137 136 143 153 173 182 172 162 159 163 167 166 164 165 160 160 155
173 165 184 158 190 250 288 352 111 203 222 15 85 107 103 100 103 111 114 110 114 114 111 111 116 116 115 122 131 140 161 173 149 142 147 152 155 163 162 152 157 159 159 163
187 191 191 186 207 244 308 123 166 152 119 87 91 96 111 109 113 113 110 107 110 115 112 108 110 104 93 101 119 130 155 146 135 138 148 151 147 148 148 154 160 162 168 181
311 332 144 156 300 323 17 54 47 73 104 97 100 105 107 107 112 105 103 106 104 101 103 103 106 106 98 87 93 105 106 126 132 136 142 144 142 133 115 117 137 158 179 193
306 357 37 47 314 356 10 21 46 58 80 88 84 89 102 107 110 113 113 110 110 107 104 108 112 110 104 95 84 72 75 96 109 117 122 127 129 129 115 93 65 96 120 199
320 34 104 237 278 191 309 342 42 62 67 96 97 82 84 99 118 117 114 107 106 107 106 105 101 98 86 77 70 60 64 86 105 110 114 123 125 125 126 122 85 45 50 39
Height
1518 1524 1529 1523 1520 1522 1522 1523 1524 1516 1506 1510 1514 1516 1516 1518 1520 1523 1525 1527 1529 1531 1534 1537 1539 1541 1544 1546 1547 1549 1551 1553 1554 1556 1558 1560 1561 1563 1564 1566 1567 1569 1570 1571
1524 1527 1516 1513 1513 1514 1517 1522 1522 1515 1507 1511 1516 1517 1515 1516 1517 1518 1521 1524 1526 1530 1533 1536 1538 1540 1542 1543 1545 1547 1548 1550 1552 1554 1556 1558 1560 1562 1563 1564 1565 1567 1568 1570
1526 1518 1510 1511 1512 1515 1516 1520 1520 1519 1513 1514 1519 1528 1521 1517 1517 1519 1520 1522 1524 1527 1530 1533 1535 1538 1540 1541 1543 1545 1547 1548 1550 1552 1554 1556 1557 1559 1560 1562 1563 1565 1566 1567
1519 1510 1509 1511 1512 1511 1521 1510 1511 1515 1526 1534 1527 1548 1529 1520 1519 1518 1520 1521 1523 1526 1528 1531 1533 1535 1537 1540 1542 1544 1545 1547 1548 1550 1551 1553 1554 1555 1557 1559 1560 1562 1563 1565
1517 1508 1509 1511 1508 1506 1511 1505 1508 1512 1523 1533 1530 1542 1536 1522 1522 1518 1518 1520 1521 1523 1526 1528 1531 1533 1536 1538 1540 1542 1544 1545 1546 1548 1549 1551 1552 1553 1555 1556 1557 1559 1560 1562
1510 1504 1505 1504 1500 1501 1502 1510 1516 1526 1535 1549 1534 1540 1540 1525 1516 1514 1515 1517 1519 1521 1524 1527 1530 1532 1535 1537 1539 1541 1542 1543 1545 1546 1547 1548 1550 1551 1552 1553 1554 1555 1557 1558
1514 1505 1500 1499 1503 1503 1508 1532 1554 1555 1563 1556 1533 1535 1534 1512 1505 1506 1510 1513 1516 1520 1523 1526 1528 1531 1533 1535 1537 1539 1540 1541 1543 1544 1545 1546 1547 1548 1549 1550 1551 1552 1553 1554
1526 1525 1502 1497 1502 1510 1512 1529 1556 1566 1566 1555 1536 1537 1521 1502 1501 1503 1506 1511 1515 1518 1521 1524 1526 1529 1531 1534 1536 1537 1539 1540 1541 1542 1543 1544 1545 1546 1547 1548 1548 1549 1550 1551
1525 1522 1498 1494 1493 1500 1512 1523 1526 1546 1549 1556 1547 1529 1513 1502 1503 1505 1508 1512 1515 1517 1520 1522 1525 1527 1530 1532 1534 1536 1537 1538 1539 1540 1541 1542 1543 1544 1544 1545 1546 1546 1547 1548
1509 1517 1502 1493 1492 1495 1500 1510 1531 1545 1558 1564 1551 1538 1531 1513 1509 1507 1509 1510 1513 1517 1519 1521 1523 1526 1529 1531 1533 1535 1536 1537 1538 1539 1540 1540 1541 1542 1542 1543 1543 1543 1544 1545
1500 1514 1510 1502 1501 1504 1504 1510 1524 1541 1547 1561 1562 1546 1510 1508 1505 1506 1507 1508 1510 1514 1517 1520 1522 1525 1527 1530 1532 1534 1535 1536 1537 1537 1538 1539 1539 1540 1540 1540 1541 1541 1542 1542
1493 1508 1519 1508 1493 1489 1495 1503 1518 1537 1542 1548 1554 1542 1500 1501 1500 1502 1504 1506 1509 1512 1515 1518 1521 1523 1526 1528 1530 1532 1533 1534 1535 1536 1537 1538 1538 1538 1538 1539 1539 1539 1539 1540
1488 1506 1523 1520 1510 1496 1496 1498 1506 1518 1533 1544 1549 1534 1500 1499 1500 1501 1503 1506 1508 1511 1514 1517 1519 1522 1524 1526 1529 1530 1532 1533 1534 1535 1536 1536 1536 1537 1537 1537 1537 1538 1538 1538
1478 1498 1511 1520 1515 1501 1499 1497 1499 1515 1531 1535 1531 1522 1506 1502 1500 1500 1502 1504 1507 1509 1512 1515 1518 1520 1523 1525 1527 1529 1530 1531 1533 1534 1534 1535 1535 1535 1535 1536 1536 1536 1536 1536
1478 1494 1494 1494 1492 1490 1493 1494 1495 1504 1511 1519 1515 1511 1503 1497 1495 1496 1498 1501 1505 1508 1510 1513 1516 1518 1521 1523 1525 1527 1528 1530 1531 1532 1532 1533 1534 1534 1534 1534 1534 1534 1534 1534
1481 1489 1490 1493 1487 1488 1492 1491 1492 1494 1496 1500 1501 1502 1490 1490 1491 1494 1496 1498 1502 1504 1507 1510 1513 1516 1518 1521 1523 1525 1526 1528 1529 1530 1530 1531 1532 1532 1533 1533 1533 1533 1533 1533
1488 1491 1501 1505 1493 1493 1503 1492 1491 1492 1489 1492 1498 1492 1486 1489 1489 1490 1492 1495 1498 1502 1506 1508 1510 1513 1515 1518 1520 1522 1524 1526 1527 1528 1529 1530 1530 1530 1531 1531 1531 1531 1531 1531
1489 1496 1506 1508 1502 1515 1502 1484 1483 1486 1486 1483 1482 1481 1481 1483 1485 1487 1490 1492 1496 1500 1503 1505 1508 1511 1514 1516 1518 1520 1522 1523 1524 1525 1526 1527 1528 1528 1529 1529 1529 1529 1529 1529
1483 1493 1506 1514 1515 1508 1493 1482 1482 1486 1489 1482 1480 1479 1480 1482 1485 1490 1491 1492 1493 1496 1499 1503 1506 1509 1511 1513 1515 1518 1520 1521 1522 1523 1524 1524 1525 1525 1526 1526 1526 1527 1527 1527
1484 1490 1503 1511 1513 1516 1498 1480 1478 1482 1493 1482 1479 1478 1479 1480 1491 1493 1491 1492 1494 1496 1498 1501 1504 1506 1509 1511 1513 1515 1516 1518 1519 1520 1521 1521 1522 1522 1523 1524 1524 1524 1525 1525
1496 1499 1505 1510 1511 1505 1487 1478 1477 1497 1497 1482 1479 1478 1478 1479 1484 1487 1489 1491 1493 1495 1497 1499 1502 1504 1507 1509 1511 1512 1513 1514 1516 1517 1518 1519 1519 1520 1520 1521 1522 1522 1522 1522
1499 1504 1507 1510 1513 1509 1483 1479 1485 1488 1483 1481 1479 1478 1479 1480 1483 1486 1488 1490 1492 1494 1496 1498 1500 1502 1505 1506 1508 1509 1511 1512 1513 1514 1515 1516 1516 1517 1517 1518 1519 1519 1519 1519
1494 1495 1497 1499 1500 1489 1483 1481 1482 1482 1482 1482 1481 1480 1480 1481 1485 1486 1488 1490 1492 1494 1496 1498 1500 1501 1504 1505 1506 1507 1508 1510 1510 1511 1512 1513 1514 1514 1515 1515 1516 1516 1516 1516
1490 1486 1489 1492 1490 1486 1484 1482 1482 1482 1483 1483 1482 1483 1482 1483 1485 1487 1488 1490 1492 1495 1496 1497 1499 1500 1502 1504 1505 1506 1507 1507 1508 1509 1510 1510 1511 1511 1512 1512 1512 1513 1513 1513
1492 1489 1491 1492 1489 1486 1484 1484 1484 1484 1483 1483 1484 1484 1484 1485 1487 1488 1489 1490 1492 1494 1496 1497 1497 1499 1501 1502 1503 1504 1505 1506 1506 1507 1507 1508 1508 1508 1509 1509 1509 1509 1509 1509
1492 1492 1494 1495 1491 1489 1488 1486 1485 1484 1484 1484 1485 1485 1486 1487 1489 1489 1490 1492 1493 1494 1496 1497 1498 1499 1500 1501 1502 1502 1503 1503 1504 1505 1505 1505 1506 1506 1506 1506 1506 1506 1506 1505